Weather History for KWJF - March, 2015

Change the Weather History Date:

Wednesday, March 4, 2015

  Actual Average Record
Temperature  
Mean Temperature 44 °F 51 °F  
Max Temperature 60 °F 65 °F 81 °F (1972)
Min Temperature 27 °F 38 °F 17 °F (2002)
Degree Days  
Heating Degree Days 21    
Month to date heating degree days 78  
Since 1 July heating degree days 1947  
Cooling Degree Days 0    
Month to date cooling degree days 0  
Year to date cooling degree days 0  
Moisture  
Dew Point 24 °F    
Average Humidity 54    
Maximum Humidity 92    
Minimum Humidity 15    
Precipitation  
Precipitation 0.00 in 0.05 in 0.77 in (1978)
Month to date precipitation 0.04 0.20  
Year to date precipitation 1.40 3.48  
Snow  
Snow 0.00 in - 0.00 in ()
Month to date snowfall 0.0  
Since 1 July snowfall 0.0  
Snow Depth 0.00 in    
Sea Level Pressure  
Sea Level Pressure 30.17 in    
Wind  
Wind Speed 7 mph (NNE)    
Max Wind Speed 18 mph    
Max Gust Speed 22 mph    
Visibility 10 miles    
Events      
T = Trace of Precipitation, MM = Missing Value Source: NWS Daily Summary

Daily Weather History Graph

Daily Weather History Graph

Search for Another Location

Airport or City:

Trip Planner

Search our weather history database for the weather conditions in past years. The results will help you decide how hot, cold, wet, or windy it might be!

Date:

Astronomy

Mar. 04, 2015 Rise Set
Actual Time 6:18 AM PST 5:51 PM PST
Civil Twilight 5:53 AM PST 6:16 PM PST
Nautical Twilight 5:23 AM PST 6:45 PM PST
Astronomical Twilight 4:54 AM PST 7:15 PM PST
Moon 5:14 PM PST (3/4) 5:33 AM PST (3/4)
Length of Visible Light 12h 23m
Length of Day
11h 32m
Waxing Gibbous, 99% of the Moon is Illuminated
Mar 4
Waxing Gibbous
Mar 5
Full
Mar 13
Last Quarter
Mar 20
New
Mar 27
First Quarter

Hourly Weather History & Observations

Time (PST) Temp. Windchill Dew Point Humidity Pressure Visibility Wind Dir Wind Speed Gust Speed Precip Events Conditions
12:56 AM 36.0 °F 33.3 °F 30.0 °F 79% 30.03 in 10.0 mi South 3.5 mph - N/A   Partly Cloudy
1:56 AM 30.9 °F 25.2 °F 27.0 °F 85% 30.04 in 10.0 mi WNW 5.8 mph - N/A   Clear
2:56 AM 34.0 °F 29.8 °F 30.0 °F 85% 30.04 in 10.0 mi WNW 4.6 mph - N/A   Clear
3:56 AM 32.0 °F 28.7 °F 28.0 °F 85% 30.06 in 10.0 mi SW 3.5 mph - N/A   Clear
4:56 AM 30.9 °F 26.2 °F 28.0 °F 89% 30.09 in 10.0 mi WSW 4.6 mph - N/A   Clear
5:56 AM 30.0 °F 25.2 °F 27.0 °F 88% 30.12 in 10.0 mi West 4.6 mph - N/A   Clear
6:56 AM 30.0 °F - 26.1 °F 85% 30.14 in 10.0 mi Calm Calm - N/A   Clear
7:56 AM 37.9 °F 35.5 °F 32.0 °F 79% 30.17 in 10.0 mi NNW 3.5 mph - N/A   Clear
8:56 AM 46.0 °F 43.9 °F 34.0 °F 63% 30.19 in 10.0 mi NE 4.6 mph - N/A   Clear
9:56 AM 50.0 °F - 32.0 °F 50% 30.19 in 10.0 mi East 4.6 mph - N/A   Clear
10:56 AM 55.0 °F - 25.0 °F 31% 30.18 in 10.0 mi ENE 10.4 mph 21.9 mph N/A   Clear
11:56 AM 57.0 °F - 19.9 °F 24% 30.19 in 10.0 mi ENE 11.5 mph 19.6 mph N/A   Clear
12:56 PM 59.0 °F - 18.0 °F 20% 30.17 in 10.0 mi ENE 15.0 mph 20.7 mph N/A   Clear
1:56 PM 60.1 °F - 16.0 °F 18% 30.17 in 10.0 mi ENE 10.4 mph 18.4 mph N/A   Clear
2:56 PM 60.1 °F - 14.0 °F 16% 30.17 in 10.0 mi NE 10.4 mph - N/A   Clear
3:56 PM 60.1 °F - 12.9 °F 16% 30.16 in 10.0 mi East 10.4 mph - N/A   Clear
4:56 PM 57.9 °F - 12.9 °F 17% 30.17 in 10.0 mi ENE 9.2 mph - N/A   Clear
5:56 PM 53.1 °F - 17.1 °F 24% 30.19 in 10.0 mi NE 5.8 mph - N/A   Clear
6:56 PM 46.0 °F 41.4 °F 21.0 °F 37% 30.22 in 10.0 mi NNE 9.2 mph - N/A   Clear
7:56 PM 39.9 °F 34.5 °F 23.0 °F 51% 30.24 in 10.0 mi North 8.1 mph - N/A   Clear
8:56 PM 39.0 °F 36.8 °F 25.0 °F 57% 30.26 in 10.0 mi West 3.5 mph - N/A   Clear
9:56 PM 33.1 °F 28.7 °F 23.0 °F 66% 30.28 in 10.0 mi NNW 4.6 mph - N/A   Clear
10:56 PM 32.0 °F 26.4 °F 21.9 °F 66% 30.29 in 10.0 mi North 5.8 mph - N/A   Clear
11:56 PM 32.0 °F 27.5 °F 23.0 °F 69% 30.29 in 10.0 mi SW 4.6 mph - N/A   Clear